When you browse on this site, cookies collect data to enhance your experience and personalize the content and advertising you see.
Visit our Privacy Policy to learn more. By continuing to use the site, you agree to this use of cookies and data.
  • In Spain
  • List of Countries
  • For 7 days
  • Water Temperature
  • Weather Map
  • Weather Widgets
  • user-avatar
    Login

    Hourly Weather Dikhil

    Today, 21 October, Monday

    Time Temperature Precipitation Wind Pressure Humidity
    00:00 +28°C° 0 mm 6 mps 717 mmHg 59%
    01:00 +28°C° 0 mm 5 mps 716 mmHg 62%
    02:00 +28°C° 0 mm 5 mps 716 mmHg 65%
    03:00 +27°C° 0 mm 5 mps 716 mmHg 68%
    04:00 +27°C° 0 mm 4 mps 716 mmHg 70%
    05:00 +26°C° 0 mm 4 mps 717 mmHg 73%
    06:00 +26°C° 0 mm 3 mps 717 mmHg 75%
    07:00 +27°C° 0 mm 5 mps 717 mmHg 69%
    08:00 +29°C° 0 mm 6 mps 718 mmHg 62%
    09:00 +30°C° 0 mm 7 mps 718 mmHg 56%
    10:00 +32°C° 0 mm 7 mps 718 mmHg 50%
    11:00 +34°C° 0 mm 7 mps 718 mmHg 44%
    12:00 +35°C° 0 mm 7 mps 718 mmHg 37%
    13:00 +35°C° 0 mm 7 mps 717 mmHg 35%
    14:00 +36°C° 0 mm 7 mps 716 mmHg 33%
    15:00 +36°C° 0 mm 7 mps 716 mmHg 30%
    16:00 +35°C° 0 mm 8 mps 716 mmHg 33%
    17:00 +34°C° 0 mm 8 mps 716 mmHg 37%
    18:00 +33°C° 0 mm 8 mps 716 mmHg 40%
    19:00 +32°C° 0 mm 8 mps 716 mmHg 41%
    20:00 +30°C° 0 mm 7 mps 716 mmHg 42%
    21:00 +30°C° 0 mm 7 mps 716 mmHg 43%
    22:00 +29°C° 0 mm 7 mps 716 mmHg 42%
    23:00 +29°C° 0 mm 7 mps 716 mmHg 40%

    Tomorrow, 22 October, Tuesday

    Time Temperature Precipitation Wind Pressure Humidity
    00:00 +29°C° 0 mm 7 mps 716 mmHg 38%
    01:00 +28°C° 0 mm 6 mps 716 mmHg 37%
    02:00 +28°C° 0 mm 6 mps 716 mmHg 37%
    03:00 +28°C° 0 mm 5 mps 715 mmHg 36%
    04:00 +27°C° 0 mm 5 mps 716 mmHg 39%
    05:00 +27°C° 0 mm 4 mps 716 mmHg 42%
    06:00 +26°C° 0 mm 4 mps 716 mmHg 46%
    07:00 +28°C° 0 mm 5 mps 717 mmHg 40%
    08:00 +30°C° 0 mm 6 mps 718 mmHg 33%
    09:00 +32°C° 0 mm 7 mps 718 mmHg 27%
    10:00 +33°C° 0 mm 8 mps 718 mmHg 27%
    11:00 +34°C° 0 mm 8 mps 717 mmHg 27%
    12:00 +37°C° 0 mm 9 mps 717 mmHg 27%
    13:00 +37°C° 0 mm 9 mps 716 mmHg 26%
    14:00 +37°C° 0 mm 9 mps 716 mmHg 25%
    15:00 +37°C° 0 mm 9 mps 715 mmHg 24%
    16:00 +35°C° 0 mm 9 mps 715 mmHg 26%
    17:00 +34°C° 0 mm 9 mps 715 mmHg 29%
    18:00 +33°C° 0 mm 8 mps 715 mmHg 31%
    19:00 +32°C° 0 mm 8 mps 716 mmHg 33%
    20:00 +30°C° 0 mm 7 mps 716 mmHg 35%
    21:00 +29°C° 0 mm 6 mps 717 mmHg 36%
    22:00 +29°C° 0 mm 5 mps 716 mmHg 37%
    23:00 +28°C° 0 mm 4 mps 716 mmHg 38%

    Day after tomorrow, 23 October, Wednesday

    Time Temperature Precipitation Wind Pressure Humidity
    00:00 +28°C° 0 mm 2 mps 716 mmHg 39%
    01:00 +27°C° 0 mm 2 mps 716 mmHg 41%
    02:00 +27°C° 0 mm 2 mps 716 mmHg 43%
    03:00 +26°C° 0 mm 2 mps 715 mmHg 44%
    04:00 +26°C° 0 mm 2 mps 716 mmHg 45%
    05:00 +25°C° 0 mm 2 mps 716 mmHg 45%
    06:00 +25°C° 0 mm 2 mps 716 mmHg 46%
    07:00 +27°C° 0 mm 3 mps 717 mmHg 37%
    08:00 +30°C° 0 mm 4 mps 718 mmHg 28%
    09:00 +33°C° 0 mm 5 mps 718 mmHg 20%
    10:00 +34°C° 0 mm 6 mps 718 mmHg 20%
    11:00 +35°C° 0 mm 6 mps 717 mmHg 20%
    12:00 +36°C° 0 mm 7 mps 717 mmHg 19%
    13:00 +36°C° 0 mm 7 mps 716 mmHg 20%
    14:00 +36°C° 0 mm 7 mps 716 mmHg 20%
    15:00 +38°C° 0 mm 8 mps 715 mmHg 21%
    16:00 +35°C° 0 mm 8 mps 715 mmHg 24%
    17:00 +34°C° 0 mm 8 mps 715 mmHg 27%
    18:00 +33°C° 0 mm 8 mps 715 mmHg 29%
    19:00 +32°C° 0 mm 7 mps 716 mmHg 31%
    20:00 +32°C° 0 mm 6 mps 716 mmHg 32%
    21:00 +30°C° 0 mm 5 mps 717 mmHg 34%
    22:00 +29°C° 0 mm 4 mps 717 mmHg 37%
    23:00 +29°C° 0 mm 4 mps 716 mmHg 39%

    24 October, Thursday

    Time Temperature Precipitation Wind Pressure Humidity
    00:00 +28°C° 0 mm 4 mps 716 mmHg 42%
    01:00 +28°C° 0 mm 4 mps 716 mmHg 45%
    02:00 +27°C° 0 mm 4 mps 716 mmHg 48%
    03:00 +27°C° 0 mm 4 mps 716 mmHg 50%
    04:00 +26°C° 0 mm 4 mps 716 mmHg 52%
    05:00 +26°C° 0 mm 4 mps 717 mmHg 54%
    06:00 +26°C° 0 mm 3 mps 717 mmHg 57%
    07:00 +28°C° 0 mm 5 mps 717 mmHg 46%
    08:00 +30°C° 0 mm 6 mps 718 mmHg 35%
    09:00 +33°C° 0 mm 8 mps 718 mmHg 24%
    10:00 +34°C° 0 mm 8 mps 718 mmHg 24%
    11:00 +35°C° 0 mm 8 mps 718 mmHg 23%
    12:00 +37°C° 0 mm 8 mps 717 mmHg 23%
    13:00 +37°C° 0 mm 8 mps 717 mmHg 22%
    14:00 +38°C° 0 mm 8 mps 716 mmHg 21%
    15:00 +38°C° 0 mm 8 mps 716 mmHg 20%
    16:00 +35°C° 0 mm 8 mps 716 mmHg 23%
    17:00 +34°C° 0 mm 8 mps 716 mmHg 25%
    18:00 +33°C° 0 mm 8 mps 716 mmHg 28%
    19:00 +32°C° 0 mm 7 mps 716 mmHg 29%
    20:00 +30°C° 0 mm 6 mps 717 mmHg 30%
    21:00 +29°C° 0 mm 6 mps 717 mmHg 32%
    22:00 +29°C° 0 mm 5 mps 717 mmHg 33%
    23:00 +28°C° 0 mm 5 mps 717 mmHg 35%

    25 October, Friday

    Time Temperature Precipitation Wind Pressure Humidity
    00:00 +28°C° 0 mm 4 mps 716 mmHg 37%
    01:00 +27°C° 0 mm 4 mps 716 mmHg 41%
    02:00 +26°C° 0 mm 4 mps 716 mmHg 45%
    03:00 +26°C° 0 mm 3 mps 716 mmHg 49%
    04:00 +25°C° 0 mm 3 mps 716 mmHg 53%
    05:00 +25°C° 0 mm 3 mps 716 mmHg 56%
    06:00 +25°C° 0 mm 3 mps 716 mmHg 59%
    07:00 +27°C° 0 mm 4 mps 717 mmHg 49%
    08:00 +29°C° 0 mm 4 mps 718 mmHg 39%
    09:00 +32°C° 0 mm 5 mps 718 mmHg 28%
    10:00 +34°C° 0 mm 5 mps 718 mmHg 24%
    11:00 +35°C° 0 mm 5 mps 717 mmHg 20%
    12:00 +38°C° 0 mm 6 mps 717 mmHg 17%
    13:00 +38°C° 0 mm 6 mps 716 mmHg 16%
    14:00 +38°C° 0 mm 7 mps 716 mmHg 16%
    15:00 +39°C° 0 mm 7 mps 715 mmHg 15%
    16:00 +36°C° 0 mm 7 mps 715 mmHg 18%
    17:00 +35°C° 0 mm 7 mps 715 mmHg 20%
    18:00 +33°C° 0 mm 7 mps 715 mmHg 23%
    19:00 +32°C° 0 mm 7 mps 716 mmHg 25%
    20:00 +30°C° 0 mm 6 mps 716 mmHg 28%
    21:00 +29°C° 0 mm 5 mps 716 mmHg 30%
    22:00 +28°C° 0 mm 5 mps 716 mmHg 35%
    23:00 +27°C° 0 mm 5 mps 716 mmHg 40%

    26 October, Saturday

    Time Temperature Precipitation Wind Pressure Humidity
    00:00 +27°C° 0 mm 4 mps 716 mmHg 45%
    01:00 +26°C° 0 mm 4 mps 716 mmHg 50%
    02:00 +25°C° 0 mm 3 mps 715 mmHg 55%
    03:00 +25°C° 0 mm 3 mps 715 mmHg 60%
    04:00 +25°C° 0 mm 3 mps 715 mmHg 63%
    05:00 +24°C° 0 mm 3 mps 716 mmHg 66%
    06:00 +24°C° 0 mm 2 mps 716 mmHg 69%
    07:00 +26°C° 0 mm 3 mps 717 mmHg 58%
    08:00 +28°C° 0 mm 3 mps 717 mmHg 47%
    09:00 +30°C° 0 mm 4 mps 718 mmHg 37%
    10:00 +33°C° 0 mm 4 mps 718 mmHg 32%
    11:00 +34°C° 0 mm 4 mps 717 mmHg 28%
    12:00 +36°C° 0 mm 5 mps 717 mmHg 24%
    13:00 +37°C° 0 mm 5 mps 716 mmHg 23%
    14:00 +37°C° 0 mm 5 mps 715 mmHg 22%
    15:00 +39°C° 0 mm 6 mps 715 mmHg 21%
    16:00 +36°C° 0 mm 7 mps 715 mmHg 28%
    17:00 +34°C° 0 mm 7 mps 715 mmHg 34%
    18:00 +33°C° 0 mm 8 mps 715 mmHg 40%
    19:00 +32°C° 0 mm 7 mps 715 mmHg 41%
    20:00 +30°C° 0 mm 6 mps 715 mmHg 42%
    21:00 +29°C° 0 mm 5 mps 716 mmHg 43%
    22:00 +29°C° 0 mm 5 mps 716 mmHg 46%
    23:00 +28°C° 0 mm 4 mps 716 mmHg 50%

    27 October, Sunday

    Time Temperature Precipitation Wind Pressure Humidity
    00:00 +27°C° 0 mm 3 mps 715 mmHg 53%
    01:00 +27°C° 0 mm 3 mps 715 mmHg 56%
    02:00 +27°C° 0 mm 2 mps 715 mmHg 60%
    03:00 +26°C° 0 mm 2 mps 715 mmHg 63%
    04:00 +26°C° 0 mm 2 mps 715 mmHg 64%
    05:00 +25°C° 0 mm 2 mps 715 mmHg 66%
    06:00 +25°C° 0 mm 1 mps 716 mmHg 68%
    07:00 +27°C° 0 mm 2 mps 716 mmHg 56%
    08:00 +29°C° 0 mm 3 mps 717 mmHg 44%
    09:00 +31°C° 0 mm 3 mps 718 mmHg 32%
    10:00 +34°C° 0 mm 5 mps 717 mmHg 27%
    11:00 +35°C° 0 mm 6 mps 717 mmHg 22%
    12:00 +38°C° 0 mm 8 mps 717 mmHg 18%
    13:00 +38°C° 0 mm 8 mps 716 mmHg 18%
    14:00 +38°C° 0 mm 8 mps 715 mmHg 18%
    15:00 +38°C° 0 mm 9 mps 715 mmHg 18%
    16:00 +37°C° 0 mm 8 mps 715 mmHg 20%
    17:00 +34°C° 0 mm 8 mps 715 mmHg 22%
    18:00 +33°C° 0 mm 7 mps 715 mmHg 25%
    19:00 +32°C° 0 mm 6 mps 715 mmHg 27%
    20:00 +30°C° 0 mm 5 mps 716 mmHg 29%
    21:00 +29°C° 0 mm 4 mps 716 mmHg 31%
    22:00 +29°C° 0 mm 4 mps 716 mmHg 35%
    23:00 +28°C° 0 mm 4 mps 716 mmHg 39%
    Show more